Monroe, MI

11:05 PM EST on February 13, 2016 (GMT -0500)
Custer

Weather History for KTTF - March, 2014

Change the Weather History Date:

Sunday, March 2, 2014

  Actual Average Record
Temperature  
Mean Temperature 11 °F -  
Max Temperature 19 °F 42 °F 64 °F (1992)
Min Temperature 3 °F 24 °F 0 °F (1963)
Degree Days  
Heating Degree Days 54    
Moisture  
Dew Point 6 °F    
Average Humidity 76    
Maximum Humidity 93    
Minimum Humidity 57    
Precipitation  
Precipitation 0.00 in - - ()
Sea Level Pressure  
Sea Level Pressure 30.27 in    
Wind  
Wind Speed 2 mph (NE)    
Max Wind Speed 14 mph    
Max Gust Speed 20 mph    
Visibility 7 miles    
Events Snow    
Averages and records for this station are not official NWS values.
T = Trace of Precipitation, MM = Missing Value Source: NWS Daily Summary

Daily Weather History Graph

Daily Weather History Graph

Search for Another Location

Airport or City:

Trip Planner

Search our weather history database for the weather conditions in past years. The results will help you decide how hot, cold, wet, or windy it might be!

Date:

Astronomy

Mar. 02, 2014 Rise Set
Actual Time 7:07 AM EST 6:25 PM EST
Civil Twilight 6:39 AM EST 6:53 PM EST
Nautical Twilight 6:06 AM EST 7:25 PM EST
Astronomical Twilight 5:34 AM EST 7:57 PM EST
Moon 7:35 AM EST (3/2) 8:22 PM EST (3/2)
Length of Visible Light 12h 13m
Length of Day
11h 18m
Waxing Crescent, 3% of the Moon is Illuminated
Mar 2
Waxing Crescent
Mar 8
First Quarter
Mar 16
Full
Mar 23
Last Quarter
Mar 30
New

Hourly Weather History & Observations

Time (EST) Temp. Windchill Dew Point Humidity Pressure Visibility Wind Dir Wind Speed Gust Speed Precip Events Conditions
12:12 AM 19.4 °F - 17.6 °F 93% 30.23 in 1.8 mi Calm Calm - N/A Snow Light Snow
12:32 AM 19.4 °F - 17.6 °F 93% 30.24 in 1.0 mi Calm Calm - N/A Snow Snow
12:52 AM 19.4 °F - 17.6 °F 93% 30.22 in 2.0 mi Calm Calm - N/A Snow Light Snow
1:12 AM 19.4 °F - 17.6 °F 93% 30.22 in 1.8 mi Calm Calm - N/A Snow Light Snow
1:32 AM 19.4 °F - 17.6 °F 93% 30.22 in 2.5 mi Calm Calm - N/A Snow Light Snow
1:52 AM 19.4 °F - 15.8 °F 86% 30.22 in 3.0 mi Calm Calm - N/A Snow Light Snow
2:13 AM 17.6 °F 12.3 °F 15.8 °F 93% 30.22 in 2.5 mi NNE 3.5 mph - N/A Snow Light Snow
2:33 AM 17.6 °F - 15.8 °F 93% 30.23 in 5.0 mi Calm Calm - N/A Snow Light Snow
2:53 AM 17.6 °F 4.3 °F 15.8 °F 93% 30.23 in 1.2 mi NNE 12.7 mph 16.1 mph N/A Snow Light Snow
3:13 AM 17.6 °F - 14.0 °F 86% 30.24 in 1.2 mi Calm Calm - N/A Snow Light Snow
3:33 AM 15.8 °F - 14.0 °F 93% 30.25 in 1.5 mi Calm Calm - N/A Snow Light Snow
3:53 AM 15.8 °F - 12.2 °F 86% 30.25 in 2.5 mi Calm Calm - N/A Snow Light Snow
4:13 AM 14.0 °F 2.0 °F 10.4 °F 86% 30.25 in 0.2 mi ENE 9.2 mph 16.1 mph N/A Snow Snow
4:33 AM 12.2 °F -2.5 °F 10.4 °F 92% 30.25 in 2.5 mi ENE 12.7 mph 18.4 mph N/A Snow Light Snow
4:53 AM 12.2 °F -1.0 °F 8.6 °F 85% 30.26 in 2.0 mi ENE 10.4 mph 19.6 mph N/A Snow Light Snow
5:14 AM 12.2 °F -3.1 °F 8.6 °F 85% 30.26 in 4.0 mi ENE 13.8 mph 18.4 mph N/A Snow Light Snow
5:34 AM 10.4 °F -0.4 °F 8.6 °F 92% 30.26 in 3.0 mi NE 6.9 mph - N/A Snow Light Snow
5:54 AM 10.4 °F -0.4 °F 6.8 °F 85% 30.27 in 3.0 mi ENE 6.9 mph 16.1 mph N/A Snow Light Snow
6:14 AM 10.4 °F -4.8 °F 6.8 °F 85% 30.27 in 3.0 mi ENE 12.7 mph - N/A Snow Light Snow
6:34 AM 10.4 °F -2.4 °F 6.8 °F 85% 30.27 in 4.0 mi ENE 9.2 mph - N/A Snow Light Snow
6:54 AM 10.4 °F - 6.8 °F 85% 30.28 in 1.8 mi Calm Calm - N/A Snow Light Snow
7:14 AM 10.4 °F - 6.8 °F 85% 30.29 in 1.8 mi Calm Calm - N/A Snow Light Snow
7:34 AM 10.4 °F -1.5 °F 5.0 °F 79% 30.29 in 1.8 mi NE 8.1 mph - N/A Snow Light Snow
7:54 AM 10.4 °F 0.8 °F 5.0 °F 79% 30.30 in 2.5 mi NE 5.8 mph 17.3 mph N/A Snow Light Snow
8:14 AM 10.4 °F - 5.0 °F 79% 30.29 in 3.0 mi Calm Calm - N/A Snow Light Snow
8:34 AM 10.4 °F - 5.0 °F 79% 30.29 in 5.0 mi Calm Calm - N/A Snow Light Snow
8:55 AM 10.4 °F 2.2 °F 5.0 °F 79% 30.28 in 10.0 mi ENE 4.6 mph - N/A   Scattered Clouds
9:15 AM 10.4 °F -0.4 °F 3.2 °F 73% 30.30 in 10.0 mi ENE 6.9 mph - N/A   Mostly Cloudy
9:35 AM 10.4 °F 4.0 °F 3.2 °F 73% 30.30 in 7.0 mi NE 3.5 mph - N/A   Mostly Cloudy
9:55 AM 10.4 °F -1.5 °F 3.2 °F 73% 30.29 in 10.0 mi ENE 8.1 mph - N/A   Overcast
10:15 AM 10.4 °F -1.5 °F 3.2 °F 73% 30.29 in 10.0 mi ENE 8.1 mph - N/A   Overcast
10:35 AM 10.4 °F - 3.2 °F 73% 30.29 in 10.0 mi Calm Calm - N/A   Overcast
10:55 AM 10.4 °F -1.5 °F 3.2 °F 73% 30.28 in 10.0 mi ENE 8.1 mph - N/A   Overcast
11:15 AM 12.2 °F 0.7 °F 3.2 °F 67% 30.29 in 10.0 mi NNE 8.1 mph - N/A   Overcast
11:35 AM 12.2 °F - 3.2 °F 67% 30.29 in 10.0 mi Calm Calm - N/A   Overcast
11:56 AM 12.2 °F - 3.2 °F 67% 30.28 in 10.0 mi Calm Calm - N/A   Overcast
12:16 PM 12.2 °F 0.7 °F 1.4 °F 62% 30.28 in 10.0 mi ENE 8.1 mph - N/A   Overcast
12:36 PM 12.2 °F - 3.2 °F 67% 30.29 in 10.0 mi Calm Calm - N/A   Overcast
12:56 PM 12.2 °F - 1.4 °F 62% 30.28 in 10.0 mi Calm Calm - N/A   Overcast
1:16 PM 12.2 °F 4.3 °F 3.2 °F 67% 30.27 in 10.0 mi North 4.6 mph - N/A   Overcast
1:36 PM 14.0 °F - 1.4 °F 57% 30.27 in 10.0 mi Calm Calm - N/A   Scattered Clouds
1:56 PM 15.8 °F - 3.2 °F 58% 30.26 in 10.0 mi Calm Calm - N/A   Clear
2:16 PM 15.8 °F - 3.2 °F 58% 30.25 in 10.0 mi Calm Calm - N/A   Clear
2:37 PM 15.8 °F - 3.2 °F 58% 30.25 in 10.0 mi Calm Calm - N/A   Mostly Cloudy
2:57 PM 15.8 °F - 3.2 °F 58% 30.25 in 10.0 mi Calm Calm - N/A   Mostly Cloudy
3:12 PM 15.8 °F - 3.2 °F 58% 30.25 in 10.0 mi Calm Calm - N/A   Mostly Cloudy
3:32 PM 15.8 °F - 3.2 °F 58% 30.26 in 10.0 mi Calm Calm - N/A   Mostly Cloudy
3:52 PM 14.0 °F - 3.2 °F 62% 30.25 in 10.0 mi Calm Calm - N/A   Overcast
4:12 PM 14.0 °F - 3.2 °F 62% 30.25 in 10.0 mi Calm Calm - N/A   Overcast
4:32 PM 12.2 °F - 3.2 °F 67% 30.25 in 10.0 mi Calm Calm - N/A   Overcast
4:52 PM 12.2 °F - 3.2 °F 67% 30.26 in 10.0 mi Calm Calm - N/A Snow Light Snow
5:12 PM 12.2 °F - 3.2 °F 67% 30.25 in 10.0 mi Calm Calm - N/A   Overcast
5:32 PM 12.2 °F - 3.2 °F 67% 30.26 in 10.0 mi Calm Calm - N/A   Overcast
5:52 PM 12.2 °F - 3.2 °F 67% 30.27 in 10.0 mi Calm Calm - N/A   Overcast
6:13 PM 10.4 °F - 3.2 °F 73% 30.27 in 10.0 mi Calm Calm - N/A   Overcast
6:33 PM 10.4 °F - 3.2 °F 73% 30.25 in 10.0 mi Calm Calm - N/A   Overcast
6:53 PM 10.4 °F - 3.2 °F 73% 30.25 in 10.0 mi Calm Calm - N/A   Overcast
7:13 PM 10.4 °F - 3.2 °F 73% 30.27 in 10.0 mi Calm Calm - N/A   Overcast
7:33 PM 10.4 °F - 3.2 °F 73% 30.28 in 10.0 mi Calm Calm - N/A   Overcast
7:53 PM 10.4 °F - 3.2 °F 73% 30.28 in 10.0 mi Calm Calm - N/A   Overcast
8:13 PM 10.4 °F - 3.2 °F 73% 30.28 in 10.0 mi Calm Calm - N/A   Overcast
8:33 PM 8.6 °F - 3.2 °F 79% 30.29 in 10.0 mi Calm Calm - N/A   Overcast
8:53 PM 10.4 °F - 3.2 °F 73% 30.28 in 10.0 mi Calm Calm - N/A   Overcast
9:14 PM 8.6 °F - 3.2 °F 79% 30.28 in 10.0 mi Calm Calm - N/A   Overcast
9:34 PM 8.6 °F - 3.2 °F 79% 30.30 in 10.0 mi Calm Calm - N/A   Overcast
9:54 PM 8.6 °F - 3.2 °F 79% 30.29 in 10.0 mi Calm Calm - N/A   Overcast
10:14 PM 8.6 °F - 3.2 °F 79% 30.28 in 10.0 mi Calm Calm - N/A   Overcast
10:34 PM 8.6 °F - 3.2 °F 79% 30.29 in 10.0 mi Calm Calm - N/A   Overcast
10:54 PM 6.8 °F - 1.4 °F 79% 30.30 in 10.0 mi Calm Calm - N/A   Overcast
11:14 PM 6.8 °F - 1.4 °F 79% 30.31 in 10.0 mi Calm Calm - N/A   Scattered Clouds
11:34 PM 3.2 °F - -0.4 °F 85% 30.32 in 10.0 mi Calm Calm - N/A   Clear
11:54 PM 6.8 °F - -0.4 °F 72% 30.31 in 10.0 mi Calm Calm - N/A   Clear